When you browse on this site, cookies collect data to enhance your experience and personalize the content and advertising you see.
Visit our Privacy Policy to learn more. By continuing to use the site, you agree to this use of cookies and data.
  • In Romania
  • List of Countries
  • For 7 days
  • Water Temperature
  • Weather Map
  • Weather Widgets
  • user-avatar
    Login

    Hourly Weather Djelfa

    Today, 18 November, Monday

    Time Temperature Precipitation Wind Pressure Humidity
    00:00 +4°C° 0 mm 4 mps 662 mmHg 63%
    01:00 +4°C° 0 mm 4 mps 662 mmHg 66%
    02:00 +4°C° 0 mm 4 mps 661 mmHg 69%
    03:00 +4°C° 0 mm 3 mps 661 mmHg 72%
    04:00 +4°C° 0 mm 3 mps 661 mmHg 74%
    05:00 +4°C° 0 mm 3 mps 661 mmHg 75%
    06:00 +5°C° 0 mm 4 mps 661 mmHg 77%
    07:00 +6°C° 0 mm 5 mps 661 mmHg 70%
    08:00 +7°C° 0 mm 6 mps 661 mmHg 62%
    09:00 +8°C° 0 mm 7 mps 661 mmHg 55%
    10:00 +9°C° 0 mm 8 mps 661 mmHg 49%
    11:00 +10°C° 0 mm 9 mps 661 mmHg 43%
    12:00 +11°C° 0 mm 9 mps 661 mmHg 37%
    13:00 +8°C° 0.6 mm 10 mps 660 mmHg 51%
    14:00 +6°C° 0.6 mm 10 mps 660 mmHg 65%
    15:00 +3°C° 0.6 mm 11 mps 659 mmHg 79%
    16:00 +3°C° 0.1 mm 10 mps 659 mmHg 77%
    17:00 +3°C° 0.1 mm 9 mps 660 mmHg 75%
    18:00 +4°C° 0.1 mm 8 mps 660 mmHg 72%
    19:00 +4°C° 0 mm 8 mps 660 mmHg 75%
    20:00 +2°C° 0 mm 8 mps 661 mmHg 77%
    21:00 +2°C° 0 mm 8 mps 661 mmHg 80%
    22:00 +2°C° 0 mm 8 mps 661 mmHg 82%
    23:00 +1°C° 0 mm 8 mps 661 mmHg 84%

    Tomorrow, 19 November, Tuesday

    Time Temperature Precipitation Wind Pressure Humidity
    00:00 +1°C° 0 mm 8 mps 661 mmHg 86%
    01:00 0°C° 0 mm 7 mps 661 mmHg 89%
    02:00 0°C° 0 mm 7 mps 661 mmHg 91%
    03:00 0°C° 0 mm 7 mps 661 mmHg 93%
    04:00 0°C° 0 mm 7 mps 661 mmHg 93%
    05:00 0°C° 0 mm 7 mps 661 mmHg 93%
    06:00 0°C° 0 mm 8 mps 661 mmHg 93%
    07:00 0°C° 0 mm 8 mps 661 mmHg 87%
    08:00 +1°C° 0 mm 8 mps 662 mmHg 81%
    09:00 +2°C° 0 mm 8 mps 663 mmHg 76%
    10:00 +4°C° 0 mm 8 mps 662 mmHg 67%
    11:00 +5°C° 0 mm 7 mps 662 mmHg 59%
    12:00 +6°C° 0 mm 7 mps 662 mmHg 50%
    13:00 +7°C° 0 mm 6 mps 662 mmHg 49%
    14:00 +7°C° 0 mm 5 mps 662 mmHg 48%
    15:00 +7°C° 0 mm 5 mps 662 mmHg 47%
    16:00 +6°C° 0 mm 4 mps 662 mmHg 52%
    17:00 +5°C° 0 mm 3 mps 662 mmHg 57%
    18:00 +5°C° 0 mm 2 mps 662 mmHg 61%
    19:00 +6°C° 0 mm 1 mps 662 mmHg 63%
    20:00 +6°C° 0 mm 1 mps 662 mmHg 66%
    21:00 +4°C° 0 mm 0 mps 662 mmHg 68%
    22:00 +5°C° 0 mm 1 mps 662 mmHg 68%
    23:00 +5°C° 0 mm 1 mps 662 mmHg 67%

    Day after tomorrow, 20 November, Wednesday

    Time Temperature Precipitation Wind Pressure Humidity
    00:00 +5°C° 0 mm 1 mps 662 mmHg 67%
    01:00 +4°C° 0 mm 2 mps 662 mmHg 67%
    02:00 +4°C° 0 mm 2 mps 662 mmHg 67%
    03:00 +3°C° 0 mm 3 mps 661 mmHg 66%
    04:00 +2°C° 0 mm 3 mps 661 mmHg 66%
    05:00 +2°C° 0 mm 3 mps 661 mmHg 66%
    06:00 +2°C° 0 mm 3 mps 661 mmHg 66%
    07:00 +4°C° 0 mm 4 mps 662 mmHg 60%
    08:00 +5°C° 0 mm 4 mps 663 mmHg 54%
    09:00 +6°C° 0 mm 5 mps 663 mmHg 48%
    10:00 +8°C° 0 mm 5 mps 663 mmHg 45%
    11:00 +9°C° 0 mm 6 mps 663 mmHg 42%
    12:00 +10°C° 0 mm 6 mps 663 mmHg 38%
    13:00 +11°C° 0 mm 6 mps 662 mmHg 37%
    14:00 +11°C° 0 mm 6 mps 662 mmHg 36%
    15:00 +11°C° 0 mm 6 mps 662 mmHg 35%
    16:00 +10°C° 0 mm 5 mps 662 mmHg 38%
    17:00 +10°C° 0 mm 4 mps 662 mmHg 42%
    18:00 +8°C° 0 mm 4 mps 661 mmHg 45%
    19:00 +9°C° 0 mm 3 mps 662 mmHg 49%
    20:00 +8°C° 0 mm 2 mps 662 mmHg 52%
    21:00 +8°C° 0 mm 2 mps 663 mmHg 56%
    22:00 +8°C° 0 mm 2 mps 662 mmHg 55%
    23:00 +7°C° 0 mm 3 mps 662 mmHg 55%

    21 November, Thursday

    Time Temperature Precipitation Wind Pressure Humidity
    00:00 +6°C° 0 mm 4 mps 662 mmHg 54%
    01:00 +6°C° 0 mm 4 mps 662 mmHg 54%
    02:00 +5°C° 0 mm 4 mps 662 mmHg 54%
    03:00 +5°C° 0 mm 4 mps 662 mmHg 54%
    04:00 +5°C° 0 mm 3 mps 662 mmHg 55%
    05:00 +5°C° 0 mm 3 mps 662 mmHg 55%
    06:00 +4°C° 0 mm 3 mps 661 mmHg 56%
    07:00 +7°C° 0 mm 3 mps 662 mmHg 55%
    08:00 +7°C° 0 mm 4 mps 663 mmHg 54%
    09:00 +8°C° 0 mm 4 mps 663 mmHg 54%
    10:00 +10°C° 0 mm 4 mps 663 mmHg 51%
    11:00 +10°C° 0 mm 5 mps 663 mmHg 49%
    12:00 +13°C° 0 mm 5 mps 663 mmHg 47%
    13:00 +13°C° 0 mm 5 mps 663 mmHg 45%
    14:00 +13°C° 0 mm 5 mps 663 mmHg 43%
    15:00 +13°C° 0 mm 4 mps 662 mmHg 40%
    16:00 +12°C° 0 mm 4 mps 662 mmHg 42%
    17:00 +11°C° 0 mm 3 mps 662 mmHg 43%
    18:00 +10°C° 0 mm 2 mps 662 mmHg 45%
    19:00 +10°C° 0 mm 3 mps 662 mmHg 44%
    20:00 +10°C° 0 mm 3 mps 662 mmHg 43%
    21:00 +10°C° 0 mm 3 mps 662 mmHg 42%
    22:00 +9°C° 0 mm 3 mps 662 mmHg 42%
    23:00 +8°C° 0 mm 4 mps 662 mmHg 41%

    22 November, Friday

    Time Temperature Precipitation Wind Pressure Humidity
    00:00 +7°C° 0 mm 4 mps 662 mmHg 41%
    01:00 +7°C° 0 mm 4 mps 662 mmHg 42%
    02:00 +6°C° 0 mm 4 mps 662 mmHg 42%
    03:00 +7°C° 0 mm 3 mps 661 mmHg 42%
    04:00 +6°C° 0 mm 4 mps 661 mmHg 43%
    05:00 +6°C° 0 mm 4 mps 661 mmHg 43%
    06:00 +6°C° 0 mm 4 mps 661 mmHg 43%
    07:00 +7°C° 0 mm 4 mps 662 mmHg 40%
    08:00 +8°C° 0 mm 4 mps 662 mmHg 38%
    09:00 +10°C° 0 mm 5 mps 663 mmHg 35%
    10:00 +12°C° 0 mm 5 mps 663 mmHg 33%
    11:00 +13°C° 0 mm 6 mps 662 mmHg 32%
    12:00 +14°C° 0 mm 7 mps 662 mmHg 31%
    13:00 +14°C° 0 mm 7 mps 662 mmHg 31%
    14:00 +15°C° 0 mm 7 mps 661 mmHg 32%
    15:00 +15°C° 0 mm 7 mps 661 mmHg 33%
    16:00 +14°C° 0 mm 7 mps 661 mmHg 36%
    17:00 +11°C° 0 mm 6 mps 661 mmHg 39%
    18:00 +10°C° 0 mm 6 mps 660 mmHg 42%
    19:00 +10°C° 0 mm 6 mps 661 mmHg 43%
    20:00 +10°C° 0 mm 6 mps 661 mmHg 45%
    21:00 +10°C° 0 mm 6 mps 661 mmHg 46%
    22:00 +10°C° 0.1 mm 6 mps 661 mmHg 50%
    23:00 +10°C° 0.1 mm 7 mps 661 mmHg 54%

    23 November, Saturday

    Time Temperature Precipitation Wind Pressure Humidity
    00:00 +10°C° 0.1 mm 7 mps 661 mmHg 58%
    01:00 +9°C° 0.1 mm 7 mps 660 mmHg 63%
    02:00 +9°C° 0.1 mm 8 mps 660 mmHg 69%
    03:00 +7°C° 0.1 mm 8 mps 660 mmHg 74%
    04:00 +7°C° 0.2 mm 8 mps 660 mmHg 77%
    05:00 +7°C° 0.2 mm 8 mps 660 mmHg 79%
    06:00 +8°C° 0.2 mm 7 mps 660 mmHg 82%
    07:00 +8°C° 0 mm 9 mps 661 mmHg 78%
    08:00 +8°C° 0 mm 11 mps 661 mmHg 74%
    09:00 +8°C° 0 mm 12 mps 661 mmHg 70%
    10:00 +9°C° 0 mm 12 mps 661 mmHg 66%
    11:00 +9°C° 0 mm 12 mps 662 mmHg 61%
    12:00 +10°C° 0 mm 13 mps 662 mmHg 56%
    13:00 +9°C° 0 mm 12 mps 661 mmHg 57%
    14:00 +9°C° 0 mm 12 mps 661 mmHg 59%
    15:00 +9°C° 0 mm 12 mps 661 mmHg 60%
    16:00 +8°C° 0 mm 12 mps 661 mmHg 66%
    17:00 +7°C° 0 mm 12 mps 661 mmHg 71%
    18:00 +6°C° 0 mm 11 mps 662 mmHg 77%
    19:00 +4°C° 0 mm 11 mps 662 mmHg 78%
    20:00 +4°C° 0 mm 11 mps 662 mmHg 80%
    21:00 +3°C° 0 mm 11 mps 663 mmHg 82%
    22:00 +3°C° 0 mm 11 mps 663 mmHg 82%
    23:00 +2°C° 0 mm 10 mps 663 mmHg 81%
    Show more